Lid_Strength_Index
2 2 2 2 2 2 2 1 2 1 2 2 2 2 2 2 3 6 8 6 5 3 3 8 9 10 10 11 12 13 17 18 17 16 16 13 14 13 12 13 13 12 12 11 9
2 2 2 2 2 2 2 2 2 1 1 3 3 2 2 3 5 7 5 4 4 4 7 9 10 10 12 12 13 15 18 16 14 16 16 14 14 14 14 14 14 14 12 10 9
2 2 2 2 3 2 2 2 2 2 1 3 3 3 3 4 8 9 5 4 4 5 7 8 9 10 13 13 13 14 16 14 14 13 13 14 14 14 15 14 13 14 12 10 11
2 2 2 2 2 2 2 2 2 2 1 2 3 3 3 6 13 9 5 6 5 7 8 9 10 13 13 14 12 15 13 13 12 12 13 14 14 14 14 13 12 13 11 11 11
1 1 2 1 2 2 2 2 2 2 1 3 3 3 6 10 10 7 5 6 7 8 10 10 12 12 14 13 12 15 14 12 12 12 13 13 14 14 13 12 11 11 10 11 11
1 1 1 1 1 2 2 2 3 2 2 3 3 4 9 12 8 8 8 8 8 9 10 11 11 11 13 13 14 13 13 14 13 13 13 14 14 14 13 12 12 12 12 11 11
1 1 1 1 2 2 3 3 3 2 3 3 3 6 9 11 8 8 9 9 8 9 10 10 10 12 12 14 12 13 15 14 13 13 14 14 15 15 12 12 12 12 12 12 11
1 1 1 2 2 2 3 2 2 2 4 3 4 8 12 8 10 9 8 9 9 8 9 9 10 11 13 12 13 15 16 18 13 13 14 14 17 13 13 13 13 13 13 12 11
-0 1 2 3 4 4 3 3 2 3 4 3 7 9 12 7 10 9 9 10 10 9 10 9 10 13 13 16 17 16 19 17 15 13 14 15 17 12 11 12 12 12 12 12 12
0 2 3 4 4 4 4 3 5 5 5 5 8 11 11 12 10 10 9 9 10 11 11 12 13 16 16 17 21 18 18 17 17 15 15 15 16 14 11 12 13 13 13 14 14
2 2 3 3 4 4 4 7 8 10 9 11 12 11 12 11 9 10 9 10 11 12 16 14 17 18 16 15 15 16 18 19 16 14 16 16 16 14 12 13 14 14 15 14 14
3 3 3 3 3 3 5 8 9 9 11 9 9 11 10 10 13 11 10 13 14 16 15 17 19 14 13 14 15 16 19 18 15 14 16 16 16 14 13 14 14 14 14 14 14
3 3 3 3 3 4 6 6 6 6 10 9 9 10 12 11 13 13 11 13 15 16 16 18 15 14 14 15 16 17 18 17 17 16 15 17 18 16 14 13 13 13 13 14 14
2 3 4 3 5 5 7 6 5 6 14 12 13 12 12 11 14 11 11 13 14 16 16 16 14 14 16 16 15 17 15 16 17 20 21 17 23 17 15 15 14 14 14 15 15
3 3 3 3 4 7 7 5 5 6 20 13 13 11 12 13 14 14 11 13 16 15 16 17 16 16 17 15 14 17 14 17 17 20 22 18 23 18 15 16 16 16 15 16 16
3 4 4 5 4 5 5 5 6 15 20 16 15 15 15 14 14 14 14 12 13 15 15 16 14 15 15 14 14 14 16 16 18 17 20 20 20 19 19 17 16 16 16 15 15
1 3 4 3 6 4 4 7 15 18 14 18 17 16 16 16 16 15 16 17 18 20 19 16 16 14 13 16 14 16 18 25 22 23 24 18 20 18 16 16 17 17 16 15 15
2 2 4 3 3 5 6 11 18 17 18 14 15 16 17 15 16 16 17 18 15 16 17 19 21 16 14 16 18 17 19 22 28 25 23 17 23 18 17 18 20 19 18 14 14
2 4 5 4 3 4 8 15 15 16 13 15 14 17 17 15 16 16 16 16 15 14 19 20 19 15 15 15 15 17 19 16 21 26 26 22 18 16 15 18 18 18 15 14 14
3 4 3 2 3 5 11 14 13 12 11 13 16 15 19 17 17 16 16 14 15 13 13 17 20 16 16 15 15 16 15 21 23 29 29 23 21 20 19 21 18 19 16 15 15
4 7 3 2 4 8 14 13 13 10 10 13 15 15 14 16 16 16 16 15 14 14 13 16 19 18 16 18 20 17 19 18 19 21 27 27 22 19 19 21 21 18 16 17 17
4 10 2 1 9 11 12 12 10 11 10 11 11 13 15 15 16 16 17 15 12 13 16 15 19 23 21 16 14 16 19 19 24 25 25 23 22 19 19 21 21 18 15 17 16
6 7 2 3 12 11 11 11 11 12 11 12 13 12 14 15 17 16 16 13 12 14 16 15 18 21 19 17 16 17 15 18 20 20 25 24 22 22 22 21 19 20 19 17 15
6 11 7 6 7 10 11 11 12 9 11 10 12 12 15 17 15 18 16 13 13 13 12 13 17 22 23 22 22 19 16 15 17 26 27 22 24 22 20 20 19 20 19 20 20
6 9 10 12 10 9 10 12 13 14 11 11 13 14 15 17 17 20 15 14 13 12 12 15 21 21 19 16 19 23 23 18 17 20 21 24 24 23 20 21 21 20 19 20 20
7 8 10 11 10 10 9 13 12 12 12 13 16 13 16 18 17 18 15 15 15 13 14 14 21 23 26 26 26 21 20 20 16 17 19 18 18 19 21 24 21 20 20 22 23
6 4 6 10 11 11 11 11 11 10 10 10 11 14 15 14 13 12 11 12 13 15 15 17 21 24 28 24 23 25 23 21 22 25 18 19 18 24 22 23 22 19 22 22 20